Snowfall_Accumulation
0.3 0.0 0.0 0.0 0.0 0.0 0.0 0.0 0.0 0.0 0.0 0.0 0.0 0.0 0.0 0.0 0.0 0.0 0.0 0.0 0.0 0.0 0.0 0.0 0.0 0.0 0.0 0.0 0.0 0.0 0.0 0.0 0.1 0.0 0.0 0.0 0.0 0.0 0.0 0.0 0.0 0.0 0.0
0.6 0.0 0.0 0.0 0.0 0.2 0.0 0.0 0.0 0.0 0.0 0.0 0.0 0.0 0.0 0.0 0.0 0.0 0.0 0.0 0.0 0.0 0.0 0.0 0.0 0.0 0.0 0.0 0.0 0.0 0.0 0.0 0.0 0.0 0.0 0.0 0.0 0.0 0.0 0.0 0.0 0.0 0.0
0.3 0.0 0.0 0.0 0.7 0.3 0.4 0.4 0.2 0.0 0.0 0.0 0.0 0.0 0.0 0.0 0.0 0.0 0.0 0.0 0.0 0.0 0.0 0.0 0.0 0.0 0.0 0.0 0.0 0.0 0.0 0.0 0.0 0.2 0.1 0.0 0.0 0.0 0.0 0.0 0.0 0.0 0.0
0.5 0.2 0.3 0.4 0.6 1.0 1.3 0.4 0.3 0.4 0.0 0.0 0.0 0.0 0.0 0.0 0.0 0.0 0.0 0.0 0.0 0.0 0.0 0.0 0.0 0.0 0.0 0.0 0.0 0.0 0.0 0.0 0.0 0.0 0.0 0.0 0.0 0.0 0.0 0.0 0.0 0.0 0.0
0.2 0.3 0.3 0.0 0.1 0.2 0.2 0.5 0.7 0.4 0.0 0.0 0.0 0.0 0.1 0.0 0.0 0.0 0.0 0.0 0.0 0.0 0.0 0.0 0.0 0.0 0.0 0.0 0.0 0.0 0.1 0.1 0.1 0.3 0.2 0.0 0.0 0.0 0.0 0.0 0.2 0.0 0.0
0.1 0.0 0.1 0.0 0.0 0.1 0.1 0.1 0.1 0.3 0.0 0.0 0.0 0.0 0.0 0.0 0.0 0.0 0.0 0.0 0.0 0.0 0.0 0.0 0.0 0.0 0.0 0.0 0.0 0.0 0.0 0.3 0.6 0.9 0.8 0.9 0.3 1.5 1.5 1.4 1.0 3.4 2.8
0.0 0.0 0.0 0.0 0.0 0.0 0.0 0.0 0.0 0.0 0.1 0.4 0.5 0.3 0.0 0.0 0.0 0.0 0.0 0.0 0.1 0.1 0.0 0.0 0.0 0.0 0.0 0.0 0.0 0.0 0.0 0.0 0.4 1.6 2.7 3.9 3.6 2.4 1.5 1.7 1.7 1.9 1.6
0.0 0.0 0.0 0.0 0.0 0.0 0.0 0.0 0.0 0.0 0.0 0.0 0.1 0.2 0.0 0.1 0.0 0.0 0.0 0.0 0.1 0.0 0.0 0.0 0.0 0.0 0.0 0.0 0.4 1.6 2.7 1.5 1.8 1.5 1.7 1.4 0.9 0.6 0.7 1.1 2.0 2.3 1.2
0.0 0.0 0.0 0.0 0.0 0.0 0.0 0.0 0.0 0.0 0.0 0.0 0.0 0.0 0.0 0.0 0.1 0.0 0.0 0.2 0.4 0.1 0.0 0.0 0.2 0.3 2.7 3.2 4.9 5.7 2.4 1.3 0.6 0.8 0.9 1.1 1.3 1.4 1.3 3.5 6.2 7.7 5.0
0.0 0.0 0.0 0.0 0.0 0.0 0.0 0.0 0.0 0.0 0.0 0.0 0.0 0.0 0.0 0.0 0.0 0.1 0.0 0.9 2.0 0.6 0.1 0.8 2.5 2.4 2.5 2.6 5.5 5.7 5.7 1.7 0.8 0.8 0.6 0.5 0.7 0.9 0.8 2.4 3.9 8.7 6.3
0.0 0.0 0.0 0.0 0.0 0.0 0.0 0.0 0.0 0.0 0.0 0.1 0.1 0.0 0.0 0.0 0.0 0.2 0.2 1.2 2.3 3.5 2.3 2.4 1.8 2.8 3.7 2.0 2.4 4.8 5.5 1.8 1.9 1.3 1.3 0.8 1.1 1.4 1.3 1.4 1.9 5.3 6.6
0.0 0.0 0.0 0.0 0.0 0.0 0.0 0.0 0.0 0.1 0.1 0.0 0.2 0.2 0.1 0.3 0.2 1.1 1.5 1.6 2.2 6.2 6.6 5.6 5.4 4.9 3.8 3.6 2.7 4.5 4.0 3.3 4.8 5.4 4.9 4.1 3.8 2.8 2.4 1.7 1.5 1.6 1.3
0.0 0.0 0.0 0.0 0.0 0.0 0.0 0.0 0.0 0.0 0.0 0.1 0.3 0.4 1.1 1.7 2.6 3.9 2.9 2.0 2.0 5.7 6.2 6.3 5.8 5.1 4.3 5.0 4.5 4.8 4.7 6.7 7.7 6.8 5.2 3.2 1.8 1.3 1.3 1.5 1.8 1.8 1.5
0.0 0.0 0.1 0.1 0.0 0.0 0.1 0.1 0.0 0.3 0.3 0.5 1.7 2.8 3.5 2.9 2.8 2.5 4.0 4.1 5.3 5.5 6.1 5.4 6.8 6.4 6.3 6.5 7.1 6.4 7.3 6.8 6.1 6.2 4.0 2.1 1.6 2.2 2.6 1.8 3.3 3.3 7.3
0.2 0.0 1.2 0.1 0.3 0.1 0.0 0.1 0.3 1.7 2.4 3.3 3.6 6.4 7.0 6.1 8.9 12.1 10.5 11.1 10.1 9.6 9.1 9.7 9.1 6.9 6.2 4.0 3.1 2.5 2.6 2.6 4.0 3.4 3.0 2.1 2.5 1.9 4.2 2.5 2.7 2.1 7.4
1.7 2.3 5.1 2.9 8.1 6.0 5.9 6.8 5.6 5.2 5.3 9.2 12.2 13.6 14.2 13.8 13.6 11.6 10.2 9.5 10.0 8.3 8.6 7.0 5.3 4.3 4.1 4.0 4.5 4.3 2.4 1.8 1.9 2.3 2.7 2.3 4.0 4.3 3.4 2.6 2.4 6.7 6.2
1.9 2.6 4.7 7.2 10.5 13.4 15.7 12.0 13.0 14.8 14.3 15.1 12.0 10.9 10.5 11.1 8.3 11.7 10.5 7.7 6.5 5.5 8.5 6.8 6.2 6.5 4.9 5.2 4.1 4.1 4.0 3.5 2.8 3.6 2.5 4.4 3.5 3.9 4.7 2.6 3.6 5.2 6.9
6.2 9.8 11.3 14.1 19.0 21.3 21.0 22.8 22.5 19.3 14.8 17.5 17.9 19.0 20.3 16.3 16.9 15.5 11.8 9.7 9.7 7.4 9.0 9.2 8.3 6.8 5.9 4.2 4.2 4.3 3.8 3.7 3.6 2.6 3.4 2.7 3.8 4.2 3.0 4.4 4.2 5.3 4.8
15.5 17.6 18.4 20.9 20.7 21.7 23.3 23.2 21.7 20.9 20.4 19.2 19.0 17.1 17.5 16.2 14.4 13.5 12.8 13.5 13.4 11.3 10.6 9.4 10.6 9.8 8.2 7.6 6.9 6.1 6.9 6.4 6.2 4.7 5.0 5.4 5.2 5.1 4.9 3.0 3.8 4.4 4.7
15.5 14.5 12.2 12.2 15.3 17.8 18.2 18.6 19.6 20.0 19.8 20.5 20.3 21.2 16.2 12.8 14.2 16.4 17.6 18.7 20.5 21.5 20.5 18.5 16.9 16.5 15.7 14.6 13.1 11.9 9.9 9.6 8.9 7.2 6.7 6.8 7.5 6.8 6.3 6.8 6.0 8.0 8.1
9.3 9.3 8.9 8.7 9.1 10.3 13.2 14.5 15.9 16.3 17.3 18.5 19.8 20.0 20.2 20.6 22.2 22.4 22.6 22.8 22.2 21.3 21.3 20.0 18.5 16.6 15.3 14.8 14.7 14.6 13.1 12.9 12.1 10.6 10.1 9.0 8.9 9.8 8.8 8.4 7.8 6.3 6.4
5.4 5.4 6.5 7.9 7.4 8.3 10.3 10.9 10.7 10.6 11.5 12.4 14.2 15.3 14.5 16.1 18.0 19.4 20.5 21.1 20.6 18.5 17.2 16.4 15.7 15.7 15.9 15.8 14.8 13.4 12.0 12.0 11.9 11.2 10.5 9.6 9.2 8.9 9.2 9.1 8.7 8.8 8.6
3.9 4.4 4.3 4.9 5.5 5.5 6.9 8.0 10.0 9.1 9.0 10.0 11.1 12.1 12.4 14.7 15.4 15.3 16.1 16.5 15.8 16.2 15.4 14.7 13.8 13.0 11.7 11.5 11.9 12.3 12.7 12.4 12.0 11.2 11.7 10.4 9.5 8.9 9.0 9.4 9.1 8.9 8.1
2.0 2.6 3.4 4.4 5.3 5.8 7.2 7.6 7.9 6.6 8.0 8.8 9.1 10.2 11.3 13.3 14.4 14.8 14.0 14.1 12.5 12.0 11.3 11.6 11.4 11.4 10.7 9.5 10.1 10.0 10.6 11.1 11.5 11.4 10.5 10.1 9.5 9.1 9.5 9.2 8.6 8.8 9.1
2.6 3.1 3.5 5.1 5.2 5.4 5.5 5.7 5.7 6.3 6.9 6.6 8.4 8.8 9.3 9.0 10.0 10.6 10.8 10.3 10.1 9.1 9.8 9.6 10.4 10.7 10.4 10.2 10.7 9.9 9.6 9.5 10.0 9.5 9.3 8.7 8.2 7.8 8.4 8.8 8.4 8.8 8.1
2.5 2.8 2.7 2.7 3.2 4.0 4.5 5.0 5.0 5.2 6.2 5.9 6.2 6.5 7.0 7.6 7.8 7.6 7.1 6.7 6.8 7.2 7.5 7.7 8.0 7.4 7.2 7.7 8.2 7.6 7.2 7.7 8.6 8.1 8.6 7.8 7.2 7.2 6.7 6.8 6.1 7.1 6.4